contact:dominique.lefevre@mio.osupytheas.fr, maurice.libes@osupytheas.fr, didier.mallarino@osupytheas.fr
Project:EMSO http://www.emso-fr.org/EMSO-France
Depth: 2436.0 m
Title:EMSO Ligure Ouest : Data MII capteur CSTAR
DateTime,Latitude,Longitude,Instrument_Serial,Reference_Counts,Signal_Counts,Corrected_Signal_raw_counts,Calculated_Beam_c_inverse_meters,Internal_thermistor_counts
DateTime,Latitude,Longitude,Instrument_Serial,Reference_Counts,Signal_Counts,Corrected_Signal_raw_counts,Calculated_Beam_c_inverse_meters,Internal_thermistor_counts
2023-12-02T00:02:32,42.805,6.029,CST-1368DR,4095,4286,11091,01.369,553
2023-12-02T00:05:33,42.805,6.029,CST-1368DR,4095,4283,11082,01.372,553
2023-12-02T00:08:35,42.805,6.029,CST-1368DR,4095,4281,11076,01.374,553
2023-12-02T00:11:36,42.805,6.029,CST-1368DR,4095,4279,11072,01.376,553
2023-12-02T00:14:38,42.805,6.029,CST-1368DR,4095,4281,11076,01.374,553
2023-12-02T00:17:40,42.805,6.029,CST-1368DR,4095,4279,11073,01.375,553
2023-12-02T00:20:41,42.805,6.029,CST-1368DR,4095,4280,11075,01.374,553
2023-12-02T00:23:43,42.805,6.029,CST-1368DR,4095,4279,11071,01.376,553
2023-12-02T00:26:44,42.805,6.029,CST-1368DR,4095,4280,11075,01.374,553
2023-12-02T00:29:46,42.805,6.029,CST-1368DR,4095,4280,11075,01.374,553
2023-12-02T00:32:47,42.805,6.029,CST-1368DR,4095,4279,11073,01.375,553
2023-12-02T00:35:49,42.805,6.029,CST-1368DR,4095,4278,11070,01.376,553
2023-12-02T00:38:51,42.805,6.029,CST-1368DR,4095,4280,11074,01.375,553
2023-12-02T00:41:52,42.805,6.029,CST-1368DR,4095,4278,11068,01.377,553
2023-12-02T00:44:54,42.805,6.029,CST-1368DR,4095,4276,11064,01.378,553
2023-12-02T00:47:55,42.805,6.029,CST-1368DR,4095,4278,11068,01.377,553
2023-12-02T00:50:57,42.805,6.029,CST-1368DR,4095,4280,11075,01.374,553
2023-12-02T00:53:58,42.805,6.029,CST-1368DR,4095,4281,11077,01.374,553
2023-12-02T00:57:00,42.805,6.029,CST-1368DR,4095,4281,11076,01.374,553
2023-12-02T01:00:02,42.805,6.029,CST-1368DR,4095,4278,11068,01.377,553
2023-12-02T01:03:03,42.805,6.029,CST-1368DR,4095,4278,11068,01.377,553
2023-12-02T01:06:05,42.805,6.029,CST-1368DR,4095,4278,11070,01.376,553
2023-12-02T01:09:06,42.805,6.029,CST-1368DR,4095,4281,11077,01.374,553
2023-12-02T01:12:08,42.805,6.029,CST-1368DR,4095,4283,11083,01.372,553
2023-12-02T01:15:10,42.805,6.029,CST-1368DR,4095,4278,11070,01.376,553
2023-12-02T01:18:11,42.805,6.029,CST-1368DR,4095,4281,11077,01.374,553
2023-12-02T01:21:13,42.805,6.029,CST-1368DR,4095,4281,11077,01.374,553
2023-12-02T01:24:14,42.805,6.029,CST-1368DR,4095,4277,11066,01.378,553
2023-12-02T01:27:16,42.805,6.029,CST-1368DR,4095,4280,11075,01.374,553
2023-12-02T01:30:17,42.805,6.029,CST-1368DR,4095,4277,11068,01.377,553
2023-12-02T01:33:19,42.805,6.029,CST-1368DR,4095,4278,11070,01.376,553
2023-12-02T01:36:21,42.805,6.029,CST-1368DR,4095,4279,11071,01.376,553
2023-12-02T01:39:22,42.805,6.029,CST-1368DR,4095,4277,11067,01.377,553
2023-12-02T01:42:24,42.805,6.029,CST-1368DR,4095,4279,11071,01.376,553
2023-12-02T01:45:25,42.805,6.029,CST-1368DR,4095,4273,11057,01.381,553
2023-12-02T01:48:27,42.805,6.029,CST-1368DR,4095,4278,11070,01.376,553
2023-12-02T01:51:28,42.805,6.029,CST-1368DR,4095,4277,11067,01.377,553
2023-12-02T01:54:30,42.805,6.029,CST-1368DR,4095,4274,11059,01.380,553
2023-12-02T01:57:32,42.805,6.029,CST-1368DR,4095,4275,11060,01.380,553
2023-12-02T02:00:33,42.805,6.029,CST-1368DR,4095,4278,11068,01.377,553
2023-12-02T02:03:35,42.805,6.029,CST-1368DR,4095,4279,11072,01.376,553
2023-12-02T02:06:36,42.805,6.029,CST-1368DR,4095,4279,11071,01.376,553
2023-12-02T02:09:38,42.805,6.029,CST-1368DR,4095,4275,11062,01.379,553
2023-12-02T02:12:39,42.805,6.029,CST-1368DR,4095,4276,11064,01.378,553
2023-12-02T02:15:41,42.805,6.029,CST-1368DR,4095,4279,11073,01.375,553
2023-12-02T02:18:43,42.805,6.029,CST-1368DR,4095,4277,11068,01.377,553
2023-12-02T02:21:44,42.805,6.029,CST-1368DR,4095,4275,11061,01.379,553
2023-12-02T02:24:46,42.805,6.029,CST-1368DR,4095,4281,11076,01.374,553
2023-12-02T02:27:47,42.805,6.029,CST-1368DR,4095,4276,11065,01.378,553
2023-12-02T02:30:49,42.805,6.029,CST-1368DR,4095,4278,11070,01.376,553
2023-12-02T02:33:51,42.805,6.029,CST-1368DR,4095,4278,11068,01.377,553
2023-12-02T02:36:52,42.805,6.029,CST-1368DR,4095,4275,11060,01.380,553
2023-12-02T02:39:54,42.805,6.029,CST-1368DR,4095,4288,11096,01.367,553
2023-12-02T02:42:55,42.805,6.029,CST-1368DR,4095,4282,11079,01.373,553
2023-12-02T02:45:57,42.805,6.029,CST-1368DR,4095,4279,11071,01.376,553
2023-12-02T02:48:58,42.805,6.029,CST-1368DR,4095,4274,11060,01.380,553
2023-12-02T02:52:00,42.805,6.029,CST-1368DR,4095,4278,11070,01.376,553
2023-12-02T02:55:02,42.805,6.029,CST-1368DR,4095,4281,11076,01.374,553
2023-12-02T02:58:03,42.805,6.029,CST-1368DR,4095,4284,11086,01.370,553
2023-12-02T03:01:05,42.805,6.029,CST-1368DR,4095,4282,11079,01.373,552
2023-12-02T03:04:06,42.805,6.029,CST-1368DR,4095,4280,11075,01.374,553
2023-12-02T03:07:08,42.805,6.029,CST-1368DR,4095,4281,11077,01.374,553
2023-12-02T03:10:09,42.805,6.029,CST-1368DR,4095,4278,11070,01.376,553
2023-12-02T03:13:11,42.805,6.029,CST-1368DR,4095,4278,11069,01.377,553
2023-12-02T03:16:13,42.805,6.029,CST-1368DR,4095,4279,11073,01.375,553
2023-12-02T03:19:14,42.805,6.029,CST-1368DR,4095,4283,11083,01.372,553
2023-12-02T03:22:16,42.805,6.029,CST-1368DR,4095,4285,11088,01.370,553
2023-12-02T03:25:17,42.805,6.029,CST-1368DR,4095,4295,11112,01.361,553
2023-12-02T03:28:19,42.805,6.029,CST-1368DR,4095,4278,11070,01.376,553
2023-12-02T03:31:21,42.805,6.029,CST-1368DR,4095,4281,11077,01.374,553
2023-12-02T03:34:22,42.805,6.029,CST-1368DR,4095,4289,11097,01.366,553
2023-12-02T03:37:24,42.805,6.029,CST-1368DR,4095,4279,11071,01.376,553
2023-12-02T03:40:25,42.805,6.029,CST-1368DR,4095,4287,11092,01.368,553
2023-12-02T03:43:27,42.805,6.029,CST-1368DR,4095,4281,11076,01.374,553
2023-12-02T03:46:28,42.805,6.029,CST-1368DR,4095,4281,11078,01.373,553
2023-12-02T03:49:30,42.805,6.029,CST-1368DR,4095,4282,11079,01.373,553
2023-12-02T03:52:32,42.805,6.029,CST-1368DR,4095,4283,11081,01.372,553
2023-12-02T03:55:33,42.805,6.029,CST-1368DR,4095,4280,11075,01.374,553
2023-12-02T03:58:35,42.805,6.029,CST-1368DR,4095,4283,11081,01.372,553
2023-12-02T04:01:36,42.805,6.029,CST-1368DR,4095,4280,11074,01.375,553
2023-12-02T04:04:38,42.805,6.029,CST-1368DR,4095,4282,11079,01.373,553
2023-12-02T04:07:40,42.805,6.029,CST-1368DR,4095,4280,11075,01.374,553
2023-12-02T04:10:41,42.805,6.029,CST-1368DR,4095,4281,11077,01.374,553
2023-12-02T04:13:43,42.805,6.029,CST-1368DR,4095,4282,11079,01.373,553
2023-12-02T04:16:44,42.805,6.029,CST-1368DR,4095,4280,11075,01.374,553
2023-12-02T04:19:46,42.805,6.029,CST-1368DR,4095,4284,11086,01.370,553
2023-12-02T04:22:47,42.805,6.029,CST-1368DR,4095,4285,11087,01.370,553
2023-12-02T04:25:49,42.805,6.029,CST-1368DR,4095,4289,11099,01.366,553
2023-12-02T04:28:51,42.805,6.029,CST-1368DR,4095,4284,11084,01.371,553
2023-12-02T04:31:52,42.805,6.029,CST-1368DR,4095,4283,11081,01.372,553
2023-12-02T04:34:54,42.805,6.029,CST-1368DR,4095,4281,11077,01.374,553
2023-12-02T04:37:55,42.805,6.029,CST-1368DR,4095,4281,11078,01.373,553
2023-12-02T04:40:57,42.805,6.029,CST-1368DR,4095,4282,11079,01.373,553
2023-12-02T04:43:58,42.805,6.029,CST-1368DR,4095,4281,11077,01.374,553
2023-12-02T04:47:00,42.805,6.029,CST-1368DR,4095,4281,11076,01.374,553
2023-12-02T04:50:02,42.805,6.029,CST-1368DR,4095,4279,11071,01.376,553
2023-12-02T04:53:03,42.805,6.029,CST-1368DR,4095,4282,11079,01.373,553
2023-12-02T04:56:05,42.805,6.029,CST-1368DR,4095,4288,11095,01.367,553
2023-12-02T04:59:06,42.805,6.029,CST-1368DR,4095,4279,11073,01.375,553
2023-12-02T05:02:08,42.805,6.029,CST-1368DR,4095,4285,11087,01.370,553
2023-12-02T05:05:09,42.805,6.029,CST-1368DR,4095,4281,11077,01.374,553
2023-12-02T05:08:11,42.805,6.029,CST-1368DR,4095,4280,11075,01.374,553
2023-12-02T05:11:13,42.805,6.029,CST-1368DR,4095,4288,11094,01.368,553
2023-12-02T05:14:14,42.805,6.029,CST-1368DR,4095,4282,11079,01.373,553
2023-12-02T05:17:16,42.805,6.029,CST-1368DR,4095,4274,11059,01.380,553
2023-12-02T05:20:17,42.805,6.029,CST-1368DR,4095,4287,11092,01.368,553
2023-12-02T05:23:19,42.805,6.029,CST-1368DR,4095,4281,11077,01.374,553
2023-12-02T05:26:21,42.805,6.029,CST-1368DR,4095,4278,11070,01.376,553
2023-12-02T05:29:22,42.805,6.029,CST-1368DR,4095,4271,11052,01.383,553
2023-12-02T05:32:25,42.805,6.029,CST-1368DR,4095,4270,11049,01.384,553
2023-12-02T05:35:27,42.805,6.029,CST-1368DR,4095,4272,11053,01.382,553
2023-12-02T05:38:28,42.805,6.029,CST-1368DR,4095,4275,11061,01.379,553
2023-12-02T05:41:30,42.805,6.029,CST-1368DR,4095,4280,11074,01.375,553
2023-12-02T05:44:31,42.805,6.029,CST-1368DR,4095,4274,11058,01.381,553
2023-12-02T05:47:33,42.805,6.029,CST-1368DR,4095,4284,11085,01.371,553
2023-12-02T05:50:35,42.805,6.029,CST-1368DR,4095,4278,11068,01.377,553
2023-12-02T05:53:36,42.805,6.029,CST-1368DR,4095,4271,11051,01.383,553
2023-12-02T05:56:38,42.805,6.029,CST-1368DR,4095,4268,11043,01.386,553
2023-12-02T05:59:39,42.805,6.029,CST-1368DR,4095,4283,11082,01.372,553
2023-12-02T06:02:41,42.805,6.029,CST-1368DR,4095,4283,11081,01.372,553
2023-12-02T06:05:42,42.805,6.029,CST-1368DR,4095,4287,11092,01.368,553
2023-12-02T06:08:44,42.805,6.029,CST-1368DR,4095,4283,11082,01.372,553
2023-12-02T06:11:46,42.805,6.029,CST-1368DR,4095,4277,11066,01.378,553
2023-12-02T06:14:47,42.805,6.029,CST-1368DR,4095,4283,11081,01.372,553
2023-12-02T06:17:49,42.805,6.029,CST-1368DR,4095,4278,11068,01.377,553
2023-12-02T06:20:50,42.805,6.029,CST-1368DR,4095,4274,11059,01.380,553
2023-12-02T06:23:52,42.805,6.029,CST-1368DR,4095,4272,11053,01.382,553
2023-12-02T06:26:53,42.805,6.029,CST-1368DR,4095,4277,11067,01.377,553
2023-12-02T06:29:55,42.805,6.029,CST-1368DR,4095,4278,11068,01.377,553
2023-12-02T06:32:57,42.805,6.029,CST-1368DR,4095,4283,11083,01.372,553
2023-12-02T06:35:58,42.805,6.029,CST-1368DR,4095,4284,11084,01.371,553
2023-12-02T06:39:00,42.805,6.029,CST-1368DR,4095,4283,11082,01.372,553
2023-12-02T06:42:01,42.805,6.029,CST-1368DR,4095,4282,11079,01.373,553
2023-12-02T06:45:03,42.805,6.029,CST-1368DR,4095,4281,11076,01.374,553
2023-12-02T06:48:05,42.805,6.029,CST-1368DR,4095,4281,11076,01.374,553
2023-12-02T06:51:06,42.805,6.029,CST-1368DR,4095,4278,11070,01.376,553
2023-12-02T06:54:08,42.805,6.029,CST-1368DR,4095,4280,11074,01.375,553
2023-12-02T06:57:09,42.805,6.029,CST-1368DR,4095,4276,11064,01.378,553
2023-12-02T07:00:11,42.805,6.029,CST-1368DR,4095,4276,11064,01.378,553
2023-12-02T07:03:12,42.805,6.029,CST-1368DR,4095,4280,11073,01.375,553
2023-12-02T07:06:14,42.805,6.029,CST-1368DR,4095,4272,11053,01.382,553
2023-12-02T07:09:16,42.805,6.029,CST-1368DR,4095,4284,11086,01.370,553
2023-12-02T07:12:17,42.805,6.029,CST-1368DR,4095,4277,11066,01.378,553
2023-12-02T07:15:19,42.805,6.029,CST-1368DR,4095,4279,11072,01.376,553
2023-12-02T07:18:20,42.805,6.029,CST-1368DR,4095,4279,11071,01.376,553
2023-12-02T07:21:22,42.805,6.029,CST-1368DR,4095,4276,11064,01.378,553
2023-12-02T07:24:23,42.805,6.029,CST-1368DR,4095,4284,11086,01.370,553
2023-12-02T07:27:25,42.805,6.029,CST-1368DR,4095,4274,11059,01.380,553
2023-12-02T07:30:28,42.805,6.029,CST-1368DR,4095,4270,11049,01.384,553
2023-12-02T07:33:30,42.805,6.029,CST-1368DR,4095,4271,11051,01.383,553
2023-12-02T07:36:31,42.805,6.029,CST-1368DR,4095,4272,11053,01.382,553
2023-12-02T07:39:33,42.805,6.029,CST-1368DR,4095,4282,11080,01.373,553
2023-12-02T07:42:34,42.805,6.029,CST-1368DR,4095,4286,11090,01.369,553
2023-12-02T07:45:36,42.805,6.029,CST-1368DR,4095,4284,11084,01.371,553
2023-12-02T07:48:38,42.805,6.029,CST-1368DR,4095,4270,11049,01.384,553
2023-12-02T07:51:39,42.805,6.029,CST-1368DR,4095,4271,11052,01.383,553
2023-12-02T07:54:41,42.805,6.029,CST-1368DR,4095,4279,11071,01.376,553
2023-12-02T07:57:42,42.805,6.029,CST-1368DR,4095,4284,11085,01.371,553
2023-12-02T08:00:44,42.805,6.029,CST-1368DR,4095,4280,11074,01.375,553
2023-12-02T08:03:46,42.805,6.029,CST-1368DR,4095,4269,11047,01.385,553
2023-12-02T08:06:47,42.805,6.029,CST-1368DR,4095,4270,11049,01.384,553
2023-12-02T08:09:49,42.805,6.029,CST-1368DR,4095,4268,11044,01.386,553
2023-12-02T08:12:50,42.805,6.029,CST-1368DR,4095,4260,11024,01.393,553
2023-12-02T08:15:52,42.805,6.029,CST-1368DR,4095,4289,11097,01.366,553
2023-12-02T08:18:53,42.805,6.029,CST-1368DR,4095,4263,11031,01.390,553
2023-12-02T08:21:55,42.805,6.029,CST-1368DR,4095,4270,11048,01.384,553
2023-12-02T08:24:57,42.805,6.029,CST-1368DR,4095,4261,11026,01.392,553
2023-12-02T08:27:58,42.805,6.029,CST-1368DR,4095,4265,11035,01.389,553
2023-12-02T08:31:00,42.805,6.029,CST-1368DR,4095,4284,11084,01.371,553
2023-12-02T08:34:01,42.805,6.029,CST-1368DR,4095,4280,11075,01.374,553
2023-12-02T08:37:03,42.805,6.029,CST-1368DR,4095,4272,11053,01.382,553
2023-12-02T08:40:04,42.805,6.029,CST-1368DR,4094,4261,11029,01.391,553
2023-12-02T08:43:06,42.805,6.029,CST-1368DR,4095,4275,11061,01.379,553
2023-12-02T08:46:08,42.805,6.029,CST-1368DR,4095,4272,11053,01.382,553
2023-12-02T08:49:09,42.805,6.029,CST-1368DR,4095,4274,11060,01.380,553
2023-12-02T08:52:11,42.805,6.029,CST-1368DR,4095,4262,11027,01.392,553
2023-12-02T08:55:12,42.805,6.029,CST-1368DR,4095,4284,11084,01.371,553
2023-12-02T08:58:14,42.805,6.029,CST-1368DR,4095,4274,11059,01.380,553
2023-12-02T09:01:16,42.805,6.029,CST-1368DR,4095,4285,11087,01.370,553
2023-12-02T09:04:17,42.805,6.029,CST-1368DR,4095,4284,11085,01.371,553
2023-12-02T09:07:19,42.805,6.029,CST-1368DR,4095,4269,11047,01.385,553
2023-12-02T09:10:20,42.805,6.029,CST-1368DR,4095,4271,11052,01.383,553
2023-12-02T09:13:22,42.805,6.029,CST-1368DR,4095,4288,11094,01.368,553
2023-12-02T09:16:23,42.805,6.029,CST-1368DR,4095,4281,11076,01.374,553
2023-12-02T09:19:25,42.805,6.029,CST-1368DR,4095,4276,11064,01.378,553
2023-12-02T09:22:27,42.805,6.029,CST-1368DR,4095,4274,11058,01.381,553
2023-12-02T09:25:28,42.805,6.029,CST-1368DR,4095,4277,11067,01.377,553
2023-12-02T09:28:30,42.805,6.029,CST-1368DR,4095,4273,11055,01.382,553
2023-12-02T09:31:31,42.805,6.029,CST-1368DR,4095,4271,11050,01.383,553
2023-12-02T09:34:33,42.805,6.029,CST-1368DR,4095,4274,11058,01.381,553
2023-12-02T09:37:35,42.805,6.029,CST-1368DR,4095,4283,11082,01.372,553
2023-12-02T09:40:36,42.805,6.029,CST-1368DR,4095,4260,11022,01.394,553
2023-12-02T09:43:38,42.805,6.029,CST-1368DR,4095,4262,11027,01.392,553
2023-12-02T09:46:39,42.805,6.029,CST-1368DR,4095,4275,11062,01.379,552
2023-12-02T09:49:41,42.805,6.029,CST-1368DR,4095,4270,11049,01.384,553
2023-12-02T09:52:43,42.805,6.029,CST-1368DR,4095,4268,11044,01.386,553
2023-12-02T09:55:44,42.805,6.029,CST-1368DR,4095,4265,11035,01.389,553
2023-12-02T09:58:46,42.805,6.029,CST-1368DR,4094,4264,11035,01.389,553
2023-12-02T10:01:47,42.805,6.029,CST-1368DR,4095,4270,11049,01.384,553
2023-12-02T10:04:49,42.805,6.029,CST-1368DR,4095,4269,11045,01.385,553
2023-12-02T10:07:50,42.805,6.029,CST-1368DR,4094,4249,10998,01.402,552
2023-12-02T10:10:52,42.805,6.029,CST-1368DR,4094,4265,11038,01.388,553
2023-12-02T10:13:54,42.805,6.029,CST-1368DR,4094,4256,11014,01.397,553
2023-12-02T10:16:55,42.805,6.029,CST-1368DR,4095,4265,11036,01.389,553
2023-12-02T10:19:57,42.805,6.029,CST-1368DR,4094,4256,11016,01.396,553
2023-12-02T10:22:58,42.805,6.029,CST-1368DR,4095,4253,11005,01.400,553
2023-12-02T10:26:00,42.805,6.029,CST-1368DR,4094,4260,11025,01.393,553
2023-12-02T10:29:01,42.805,6.029,CST-1368DR,4095,4254,11008,01.399,553
2023-12-02T10:32:03,42.805,6.029,CST-1368DR,4095,4260,11024,01.393,553
2023-12-02T10:35:05,42.805,6.029,CST-1368DR,4095,4265,11035,01.389,553
2023-12-02T10:38:06,42.805,6.029,CST-1368DR,4095,4267,11042,01.386,553
2023-12-02T10:41:08,42.805,6.029,CST-1368DR,4095,4260,11024,01.393,553
2023-12-02T10:44:09,42.805,6.029,CST-1368DR,4094,4253,11007,01.399,553
2023-12-02T10:47:11,42.805,6.029,CST-1368DR,4095,4274,11059,01.380,553
2023-12-02T10:50:13,42.805,6.029,CST-1368DR,4094,4249,10997,01.403,553
2023-12-02T10:53:14,42.805,6.029,CST-1368DR,4095,4281,11078,01.373,553
2023-12-02T10:56:16,42.805,6.029,CST-1368DR,4095,4277,11068,01.377,553
2023-12-02T10:59:17,42.805,6.029,CST-1368DR,4095,4283,11082,01.372,552
2023-12-02T11:02:19,42.805,6.029,CST-1368DR,4095,4266,11039,01.387,553
2023-12-02T11:05:20,42.805,6.029,CST-1368DR,4094,4268,11046,01.385,553
2023-12-02T11:08:22,42.805,6.029,CST-1368DR,4094,4250,11000,01.402,553
2023-12-02T11:11:24,42.805,6.029,CST-1368DR,4095,4282,11079,01.373,553
2023-12-02T11:14:25,42.805,6.029,CST-1368DR,4094,4263,11033,01.390,553
2023-12-02T11:17:27,42.805,6.029,CST-1368DR,4095,4262,11027,01.392,553
2023-12-02T11:20:28,42.805,6.029,CST-1368DR,4094,4251,11002,01.401,553
2023-12-02T11:23:30,42.805,6.029,CST-1368DR,4095,4274,11058,01.381,553
2023-12-02T11:26:31,42.805,6.029,CST-1368DR,4095,4273,11057,01.381,553
2023-12-02T11:29:33,42.805,6.029,CST-1368DR,4095,4268,11044,01.386,553
2023-12-02T11:32:35,42.805,6.029,CST-1368DR,4094,4274,11061,01.379,553
2023-12-02T11:35:36,42.805,6.029,CST-1368DR,4095,4271,11050,01.383,553
2023-12-02T11:38:38,42.805,6.029,CST-1368DR,4094,4261,11027,01.392,553
2023-12-02T11:41:39,42.805,6.029,CST-1368DR,4094,4258,11020,01.394,553
2023-12-02T11:44:41,42.805,6.029,CST-1368DR,4094,4263,11032,01.390,553
2023-12-02T11:47:43,42.805,6.029,CST-1368DR,4094,4270,11051,01.383,553
2023-12-02T11:50:44,42.805,6.029,CST-1368DR,4094,4265,11038,01.388,553
2023-12-02T11:53:46,42.805,6.029,CST-1368DR,4094,4253,11007,01.399,553
2023-12-02T11:56:47,42.805,6.029,CST-1368DR,4094,4260,11026,01.392,553
2023-12-02T11:59:49,42.805,6.029,CST-1368DR,4094,4254,11010,01.398,553
2023-12-02T12:02:51,42.805,6.029,CST-1368DR,4094,4273,11059,01.380,553
2023-12-02T12:05:52,42.805,6.029,CST-1368DR,4094,4268,11045,01.385,553
2023-12-02T12:08:54,42.805,6.029,CST-1368DR,4094,4271,11054,01.382,553
2023-12-02T12:11:55,42.805,6.029,CST-1368DR,4094,4267,11042,01.386,553
2023-12-02T12:14:57,42.805,6.029,CST-1368DR,4094,4271,11053,01.382,553
2023-12-02T12:17:58,42.805,6.029,CST-1368DR,4094,4248,10994,01.404,553
2023-12-02T12:21:00,42.805,6.029,CST-1368DR,4094,4260,11024,01.393,553
2023-12-02T12:24:02,42.805,6.029,CST-1368DR,4094,4271,11053,01.382,553
2023-12-02T12:27:03,42.805,6.029,CST-1368DR,4094,4277,11068,01.377,553
2023-12-02T12:30:05,42.805,6.029,CST-1368DR,4094,4259,11023,01.393,553
2023-12-02T12:33:06,42.805,6.029,CST-1368DR,4094,4248,10995,01.403,553
2023-12-02T12:36:08,42.805,6.029,CST-1368DR,4094,4261,11028,01.391,553
2023-12-02T12:39:09,42.805,6.029,CST-1368DR,4094,4260,11026,01.392,553
2023-12-02T12:42:11,42.805,6.029,CST-1368DR,4094,4260,11025,01.393,553
2023-12-02T12:45:13,42.805,6.029,CST-1368DR,4094,4262,11030,01.391,553
2023-12-02T12:48:14,42.805,6.029,CST-1368DR,4094,4248,10994,01.404,553
2023-12-02T12:51:16,42.805,6.029,CST-1368DR,4094,4267,11042,01.386,553
2023-12-02T12:54:17,42.805,6.029,CST-1368DR,4094,4271,11054,01.382,553
2023-12-02T12:57:19,42.805,6.029,CST-1368DR,4094,4262,11030,01.391,553
2023-12-02T13:00:21,42.805,6.029,CST-1368DR,4094,4271,11055,01.382,553
2023-12-02T13:03:22,42.805,6.029,CST-1368DR,4094,4264,11035,01.389,553
2023-12-02T13:06:24,42.805,6.029,CST-1368DR,4094,4264,11036,01.389,553
2023-12-02T13:09:25,42.805,6.029,CST-1368DR,4094,4250,11000,01.402,553
2023-12-02T13:12:27,42.805,6.029,CST-1368DR,4094,4259,11024,01.393,553
2023-12-02T13:15:28,42.805,6.029,CST-1368DR,4094,4256,11014,01.397,553
2023-12-02T13:18:30,42.805,6.029,CST-1368DR,4094,4263,11032,01.390,553
2023-12-02T13:21:32,42.805,6.029,CST-1368DR,4094,4255,11011,01.398,553
2023-12-02T13:24:33,42.805,6.029,CST-1368DR,4094,4256,11016,01.396,553
2023-12-02T13:27:35,42.805,6.029,CST-1368DR,4094,4275,11064,01.378,553
2023-12-02T13:30:36,42.805,6.029,CST-1368DR,4094,4274,11062,01.379,553
2023-12-02T13:33:38,42.805,6.029,CST-1368DR,4094,4274,11062,01.379,553
2023-12-02T13:36:39,42.805,6.029,CST-1368DR,4094,4255,11011,01.398,553
2023-12-02T13:39:41,42.805,6.029,CST-1368DR,4094,4263,11033,01.390,553
2023-12-02T13:42:43,42.805,6.029,CST-1368DR,4094,4255,11012,01.397,553
2023-12-02T13:45:44,42.805,6.029,CST-1368DR,4094,4256,11014,01.397,553
2023-12-02T13:48:46,42.805,6.029,CST-1368DR,4094,4254,11010,01.398,553
2023-12-02T13:51:47,42.805,6.029,CST-1368DR,4094,4279,11075,01.374,553
2023-12-02T13:54:49,42.805,6.029,CST-1368DR,4094,4250,11000,01.402,553
2023-12-02T13:57:51,42.805,6.029,CST-1368DR,4094,4253,11007,01.399,553
2023-12-02T14:00:52,42.805,6.029,CST-1368DR,4094,4270,11051,01.383,553
2023-12-02T14:03:54,42.805,6.029,CST-1368DR,4094,4276,11068,01.377,553
2023-12-02T14:06:55,42.805,6.029,CST-1368DR,4094,4276,11068,01.377,553
2023-12-02T14:09:57,42.805,6.029,CST-1368DR,4094,4260,11026,01.392,553
2023-12-02T14:12:58,42.805,6.029,CST-1368DR,4094,4267,11044,01.386,553
2023-12-02T14:16:00,42.805,6.029,CST-1368DR,4094,4273,11059,01.380,553
2023-12-02T14:19:02,42.805,6.029,CST-1368DR,4094,4268,11046,01.385,553
2023-12-02T14:22:03,42.805,6.029,CST-1368DR,4094,4269,11049,01.384,553
2023-12-02T14:25:05,42.805,6.029,CST-1368DR,4094,4269,11049,01.384,553
2023-12-02T14:28:06,42.805,6.029,CST-1368DR,4094,4252,11005,01.400,553
2023-12-02T14:31:08,42.805,6.029,CST-1368DR,4094,4264,11035,01.389,553
2023-12-02T14:34:09,42.805,6.029,CST-1368DR,4094,4257,11018,01.395,553
2023-12-02T14:37:11,42.805,6.029,CST-1368DR,4094,4256,11014,01.397,553
2023-12-02T14:40:13,42.805,6.029,CST-1368DR,4094,4257,11018,01.395,553
2023-12-02T14:43:14,42.805,6.029,CST-1368DR,4094,4252,11005,01.400,553
2023-12-02T14:46:16,42.805,6.029,CST-1368DR,4094,4268,11045,01.385,553
2023-12-02T14:49:17,42.805,6.029,CST-1368DR,4094,4255,11011,01.398,553
2023-12-02T14:52:19,42.805,6.029,CST-1368DR,4094,4250,11000,01.402,553
2023-12-02T14:55:21,42.805,6.029,CST-1368DR,4094,4258,11020,01.394,553
2023-12-02T14:58:22,42.805,6.029,CST-1368DR,4094,4261,11028,01.391,553
2023-12-02T15:01:24,42.805,6.029,CST-1368DR,4094,4268,11046,01.385,553
2023-12-02T15:04:25,42.805,6.029,CST-1368DR,4094,4267,11042,01.386,553
2023-12-02T15:07:27,42.805,6.029,CST-1368DR,4094,4252,11005,01.400,553
2023-12-02T15:10:28,42.805,6.029,CST-1368DR,4094,4270,11051,01.383,553
2023-12-02T15:13:30,42.805,6.029,CST-1368DR,4094,4259,11023,01.393,553
2023-12-02T15:16:32,42.805,6.029,CST-1368DR,4094,4261,11028,01.391,553
2023-12-02T15:19:33,42.805,6.029,CST-1368DR,4094,4267,11044,01.386,553
2023-12-02T15:22:35,42.805,6.029,CST-1368DR,4094,4275,11065,01.378,553
2023-12-02T15:25:36,42.805,6.029,CST-1368DR,4094,4270,11052,01.383,552
2023-12-02T15:28:38,42.805,6.029,CST-1368DR,4094,4264,11036,01.389,553
2023-12-02T15:31:42,42.805,6.029,CST-1368DR,4094,4263,11033,01.390,553
2023-12-02T15:34:44,42.805,6.029,CST-1368DR,4094,4269,11049,01.384,553
2023-12-02T15:37:45,42.805,6.029,CST-1368DR,4094,4265,11038,01.388,553
2023-12-02T15:40:47,42.805,6.029,CST-1368DR,4094,4266,11042,01.386,553
2023-12-02T15:43:49,42.805,6.029,CST-1368DR,4094,4251,11003,01.401,553
2023-12-02T15:46:50,42.805,6.029,CST-1368DR,4094,4264,11035,01.389,553
2023-12-02T15:49:52,42.805,6.029,CST-1368DR,4094,4255,11011,01.398,553
2023-12-02T15:52:53,42.805,6.029,CST-1368DR,4094,4267,11044,01.386,553
2023-12-02T15:55:55,42.805,6.029,CST-1368DR,4094,4245,10986,01.407,553
2023-12-02T15:58:56,42.805,6.029,CST-1368DR,4094,4258,11020,01.394,553
2023-12-02T16:01:58,42.805,6.029,CST-1368DR,4094,4252,11005,01.400,553
2023-12-02T16:05:00,42.805,6.029,CST-1368DR,4094,4272,11057,01.381,553
2023-12-02T16:08:01,42.805,6.029,CST-1368DR,4094,4251,11002,01.401,553
2023-12-02T16:11:03,42.805,6.029,CST-1368DR,4094,4257,11018,01.395,553
2023-12-02T16:14:04,42.805,6.029,CST-1368DR,4094,4271,11055,01.382,552
2023-12-02T16:17:06,42.805,6.029,CST-1368DR,4094,4257,11018,01.395,553
2023-12-02T16:20:08,42.805,6.029,CST-1368DR,4094,4250,10999,01.402,553
2023-12-02T16:23:09,42.805,6.029,CST-1368DR,4094,4250,11000,01.402,553
2023-12-02T16:26:11,42.805,6.029,CST-1368DR,4094,4250,11000,01.402,553
2023-12-02T16:29:12,42.805,6.029,CST-1368DR,4094,4250,11000,01.402,553
2023-12-02T16:32:14,42.805,6.029,CST-1368DR,4094,4251,11002,01.401,553
2023-12-02T16:35:15,42.805,6.029,CST-1368DR,4094,4259,11024,01.393,553
2023-12-02T16:38:17,42.805,6.029,CST-1368DR,4094,4268,11047,01.385,553